Tacoma, WA

7:14 AM PDT on April 19, 2018 (GMT -0700)
McChord Air Force Base

Weather History for KTCM - March, 2015

Change the Weather History Date:

Sunday, March 1, 2015

  Actual Average Record
Temperature  
Mean Temperature 40 °F -  
Max Temperature 55 °F 48 °F 64 °F (1968)
Min Temperature 25 °F 31 °F 19 °F (1960)
Degree Days  
Heating Degree Days 25    
Moisture  
Dew Point 34 °F    
Average Humidity 79    
Maximum Humidity 99    
Minimum Humidity 38    
Precipitation  
Precipitation 0.00 in - - ()
Sea Level Pressure  
Sea Level Pressure 30.11 in    
Wind  
Wind Speed 3 mph (West)    
Max Wind Speed 10 mph    
Max Gust Speed -    
Visibility 10 miles    
Events Rain    
Averages and records for this station are not official NWS values.
T = Trace of Precipitation, MM = Missing Value Source: NWS Daily Summary

Daily Weather History Graph

Daily Weather History Graph

Search for Another Location

Airport or City:

Astronomy

Mar. 01, 2015 Rise Set
Actual Time 6:50 AM PST 5:55 PM PST
Civil Twilight 6:19 AM PST 6:25 PM PST
Nautical Twilight 5:44 AM PST 7:01 PM PST
Astronomical Twilight 5:08 AM PST 7:36 PM PST
Moon 2:25 PM PST (3/1) 4:28 AM PST (3/1)
Length of Visible Light 12h 06m
Length of Day
11h 04m
Waxing Gibbous, 87% of the Moon is Illuminated
Mar 1
Waxing Gibbous
Mar 5
Full
Mar 13
Last Quarter
Mar 20
New
Mar 27
First Quarter

Hourly Weather History & Observations

Time (PST) Temp. Windchill Dew Point Humidity Pressure Visibility Wind Dir Wind Speed Gust Speed Precip Events Conditions
12:58 AM 28.8 °F - 28.4 °F 99% 30.27 in 10.0 mi South 2.3 mph - N/A   Clear
1:58 AM 29.8 °F - 29.7 °F 99% 30.27 in 10.0 mi SE 2.3 mph - N/A   Clear
2:58 AM 28.0 °F 24.2 °F 27.9 °F 99% 30.26 in 10.0 mi South 3.5 mph - N/A   Clear
3:58 AM 28.0 °F - 27.9 °F 99% 30.25 in 10.0 mi South 2.3 mph - N/A   Clear
4:58 AM 26.8 °F - 26.6 °F 99% 30.25 in 10.0 mi Calm Calm - N/A   Clear
5:58 AM 25.7 °F - 25.5 °F 99% 30.26 in 10.0 mi SSE 2.3 mph - N/A   Clear
6:58 AM 27.7 °F - 27.5 °F 99% 30.25 in 10.0 mi Calm Calm - N/A   Clear
7:58 AM 29.8 °F - 29.7 °F 99% 30.25 in 10.0 mi Calm Calm - N/A   Clear
8:58 AM 36.1 °F - 35.1 °F 96% 30.25 in 10.0 mi West 2.3 mph - N/A   Clear
9:58 AM 43.3 °F - 34.7 °F 72% 30.22 in 10.0 mi West 1.2 mph - N/A   Clear
10:58 AM 48.2 °F - 35.2 °F 61% 30.20 in 10.0 mi Variable 2.3 mph - N/A   Clear
11:58 AM 53.1 °F - 32.5 °F 46% 30.18 in 10.0 mi Variable 1.2 mph - N/A   Mostly Cloudy
12:58 PM 53.8 °F - 30.7 °F 41% 30.14 in 10.0 mi West 5.8 mph - N/A   Mostly Cloudy
1:58 PM 54.3 °F - 30.2 °F 40% 30.10 in 10.0 mi WSW 6.9 mph - N/A   Partly Cloudy
2:58 PM 55.4 °F - 29.8 °F 38% 30.08 in 10.0 mi WSW 10.4 mph - N/A   Clear
3:58 PM 54.3 °F - 29.8 °F 39% 30.05 in 10.0 mi WSW 5.8 mph - N/A   Partly Cloudy
4:58 PM 52.2 °F - 31.8 °F 46% 30.03 in 10.0 mi NW 5.8 mph - N/A   Scattered Clouds
5:58 PM 50.4 °F - 36.1 °F 58% 30.01 in 10.0 mi NW 2.3 mph - N/A   Mostly Cloudy
6:58 PM 48.9 °F - 41.0 °F 74% 30.00 in 10.0 mi WNW 8.1 mph - N/A   Mostly Cloudy
7:58 PM 47.3 °F - 40.1 °F 76% 30.00 in 10.0 mi West 3.5 mph - N/A   Mostly Cloudy
8:58 PM 45.9 °F - 39.7 °F 79% 30.00 in 10.0 mi WSW 2.3 mph - N/A   Mostly Cloudy
9:58 PM 42.1 °F - 40.3 °F 93% 30.00 in 10.0 mi SW 1.2 mph - N/A   Overcast
10:21 PM 44.6 °F - 41.0 °F 87% 29.97 in 10.0 mi WNW 1.2 mph - N/A Rain Light Rain
10:31 PM 44.6 °F 42.2 °F 39.2 °F 81% 29.97 in 10.0 mi NW 4.6 mph - N/A Rain Light Rain
10:58 PM 43.3 °F - 41.4 °F 93% 29.99 in 10.0 mi North 2.3 mph - 0.00 in   Light Drizzle
10:59 PM 42.8 °F - 41.0 °F 93% 29.97 in 10.0 mi North 2.3 mph - N/A   Overcast
11:19 PM 42.8 °F 41.1 °F 41.0 °F 93% 29.97 in 10.0 mi NNE 3.5 mph - N/A   Overcast
11:52 PM 42.8 °F 39.3 °F 41.0 °F 93% 29.97 in 10.0 mi NNE 5.8 mph - N/A Rain Light Rain
11:58 PM 43.3 °F 40.7 °F 40.3 °F 89% 29.99 in 10.0 mi NNE 4.6 mph - 0.00 in Rain Light Rain